Volver al catálogo

COSMOS 2251 DEB

ActivoLEO
NORAD 34967·DEBRIS·🇷🇺 Russia

Lanzado Jun 16, 1993 desde Plesetsk Cosmodrome

Loading…

Próximos Pases (próximas 24 horas)

TLE

ActualizadoSource: Space-Track

Época: Sep 13, 2026, 19:54 UTC

1 34967U 93036AEW 26256.82934791  .00001123  00000-0  32488-3 0  9999
2 34967  73.9901 100.1922 0039378 183.1222 176.9696 14.45257807689307

Sigue COSMOS 2251 DEB en tiempo real con AllMySat

Download on the App Store